Flag for Greenland Weather past 2 weeks in Qaanaaq, Greenland

Now
12 °F

Broken clouds.


Feels Like: -5 °F
Forecast: N/A
Wind: 17 mph from South

Location: Thule A. B.


UV Index: N/A

Visibility: N/A


Pressure: 30.03 "Hg

Humidity: 67%

Dew point: 3 °F

Location of QaanaaqLocation

Historic Weather in Qaanaaq

°F

Qaanaaq temperature yesterday

Maximum temperature yesterday: 9 °F (at 5:58 PM)
Minimum temperature yesterday: -6 °F (at 3:58 AM)
Average temperature yesterday: 1 °F

Past Weeks' High & Low Weather Summary

 TemperatureHumidityPressure
High21 °F (Apr 17, 3:58 PM)92% (Apr 14, 3:58 AM)30.04 "Hg (Apr 14, 3:58 AM)
Low-13 °F (Apr 11, 5:58 AM)32% (Apr 17, 4:58 PM)28.92 "Hg (Apr 17, 3:58 PM)
Average5 °F65%29.67 "Hg
* Reported Apr 8 8:58 PM — Apr 23 8:03 PM, Qaanaaq, Weather by CustomWeather, © 2014

Note: Actual official high and low records may vary slightly from our data, if they occured in-between our weather recording intervals... More about our weather records

Advertising

Historic Weather Conditions — Data for Previous 24 hours

 ConditionsComfort  
Time TempWeatherWind HumidityBarometerVisibility
8:03 PM
Apr 23
12 °FBroken clouds.8 mph79%30.04 "Hg4 mi
7:58 PM12 °FScattered clouds.8 mph79%30.01 "HgN/A
7:02 PM12 °FBroken clouds.2 mph79%30.01 "HgN/A
6:58 PM12 °FBroken clouds.2 mph79%29.98 "HgN/A
5:58 PM14 °FSunny.5 mph67%29.96 "HgN/A
4:58 PM14 °FOvercast.5 mph73%29.95 "HgN/A
3:58 PM14 °FScattered clouds.1 mph67%29.93 "HgN/A
3:00 PM12 °FPartly sunny.3 mph79%29.95 "Hg6 mi
2:02 PM14 °FPartly sunny.10 mph67%29.94 "HgN/A
12:58 PM10 °FSunny.7 mph67%29.90 "HgN/A
11:58 AM10 °FSunny.5 mph61%29.89 "HgN/A
10:58 AM10 °FSunny.7 mph61%29.87 "HgN/A
9:58 AM10 °FSunny.17 mph67%29.86 "HgN/A
8:58 AM9 °FSunny.18 mph66%29.85 "HgN/A
7:58 AM7 °FScattered clouds.15 mph66%29.84 "HgN/A
6:58 AM7 °FSunny.14 mph61%29.83 "HgN/A
5:58 AM7 °FSunny.21 mph61%29.81 "HgN/A
4:58 AM7 °FSunny.23 mph66%29.78 "HgN/A
3:58 AM5 °FSunny.21 mph60%29.77 "HgN/A
2:58 AM0 °FSunny.9 mph71%29.76 "HgN/A
1:58 AM-4 °FSunny.15 mph71%29.75 "HgN/A
12:58 AM-2 °FSunny.12 mph71%29.73 "HgN/A
11:58 PM
Apr 22
0 °FSunny.14 mph65%29.73 "HgN/A
10:58 PM1 °FSunny.13 mph65%29.72 "HgN/A
9:58 PM1 °FSunny.10 mph71%29.71 "HgN/A
Weather by CustomWeather, © 2014

See weather overview